Location: Observatoire
(46.1952°N, 5.3391°E)
Time: 06:22:59
(UTC+01:00)

A-11 Canister half - Pass Details

Date: 22 February 2026
Orbit: 1524 x 1683 km, 47.3° (Epoch: 13 March)

Event Time Altitude Azimuth Distance (km) Brightness Sun altitude
Rises 18:40:06 0° 270° (W) 4,710 13.9 -5.1°
Reaches altitude 10° 18:43:10 10° 271° (W) 3,713 12.8 -5.7°
Maximum altitude 18:52:33 84° 0° (N) 1,536 9.0 -7.3°
Drops below altitude 10° 19:01:54 10° 90° (E) 3,700 10.3 -8.9°
Enters shadow 19:01:54 10° 90° (E) 3,700 10.3 -8.9°
Sets 19:04:57 0° 91° (E) 4,692 - -9.4°
